Time,TemperatureF,DewpointF,PressureIn,WindDirection,WindDirectionDegrees,WindSpeedMPH,WindSpeedGustMPH,Humidity,HourlyPrecipIn,Conditions,Clouds,dailyrainin,SoftwareType,DateUTC
2013-02-14 00:00:00,32.7,28.4,29.69,NNE,25,0.0,0.0,84,0.00,,,0.00,LWC V2.10 B1702,2013-02-14 05:00:00,
2013-02-14 00:05:00,32.7,28.4,29.70,NNE,25,0.0,2.0,84,0.00,,,0.00,LWC V2.10 B1702,2013-02-14 05:05:00,
2013-02-14 00:10:00,32.8,28.2,29.69,NNE,25,0.0,0.0,83,0.00,,,0.00,LWC V2.10 B1702,2013-02-14 05:10:00,
2013-02-14 00:15:00,32.9,28.3,29.69,NNE,25,0.0,0.0,83,0.00,,,0.00,LWC V2.10 B1702,2013-02-14 05:15:00,
2013-02-14 00:20:00,32.9,28.3,29.69,NNE,25,0.0,0.0,83,0.00,,,0.00,LWC V2.10 B1702,2013-02-14 05:20:00,
2013-02-14 00:25:00,32.9,28.3,29.68,NNE,25,0.0,0.0,83,0.00,,,0.00,LWC V2.10 B1702,2013-02-14 05:25:00,
2013-02-14 00:30:00,32.9,28.3,29.68,NNE,24,0.0,3.0,83,0.00,,,0.00,LWC V2.10 B1702,2013-02-14 05:30:00,
2013-02-14 00:35:00,33.0,28.4,29.68,NNE,19,0.0,0.0,83,0.00,,,0.00,LWC V2.10 B1702,2013-02-14 05:35:00,
2013-02-14 00:40:00,33.0,28.4,29.69,NNE,30,0.0,0.0,83,0.00,,,0.00,LWC V2.10 B1702,2013-02-14 05:40:00,
2013-02-14 00:45:00,33.0,28.4,29.68,NNE,30,0.0,0.0,83,0.00,,,0.00,LWC V2.10 B1702,2013-02-14 05:45:00,
2013-02-14 00:50:00,33.0,28.4,29.68,NNE,30,0.0,0.0,83,0.00,,,0.00,LWC V2.10 B1702,2013-02-14 05:50:00,
2013-02-14 00:55:00,33.1,28.5,29.68,NNE,30,0.0,0.0,83,0.00,,,0.00,LWC V2.10 B1702,2013-02-14 05:55:00,
2013-02-14 01:00:00,33.1,28.5,29.68,NNE,30,0.0,0.0,83,0.00,,,0.00,LWC V2.10 B1702,2013-02-14 06:00:00,
2013-02-14 01:05:00,33.1,28.5,29.68,NNE,30,0.0,0.0,83,0.00,,,0.00,LWC V2.10 B1702,2013-02-14 06:05:00,
2013-02-14 01:10:00,33.1,28.5,29.69,NNE,30,0.0,0.0,83,0.00,,,0.00,LWC V2.10 B1702,2013-02-14 06:10:00,
2013-02-14 01:15:00,33.1,28.8,29.69,NNE,19,0.0,0.0,84,0.00,,,0.00,LWC V2.10 B1702,2013-02-14 06:15:00,
2013-02-14 01:20:00,33.1,29.1,29.69,NNE,19,0.0,0.0,85,0.00,,,0.00,LWC V2.10 B1702,2013-02-14 06:20:00,
2013-02-14 01:25:00,33.1,29.4,29.68,NNE,21,0.0,0.0,86,0.00,,,0.00,LWC V2.10 B1702,2013-02-14 06:25:00,
2013-02-14 01:30:00,33.0,29.6,29.68,NNE,21,0.0,0.0,87,0.00,,,0.00,LWC V2.10 B1702,2013-02-14 06:30:00,
2013-02-14 01:35:00,33.0,29.6,29.68,NNE,21,0.0,0.0,87,0.00,,,0.00,LWC V2.10 B1702,2013-02-14 06:35:00,
2013-02-14 01:40:00,32.9,29.7,29.68,NNE,32,1.0,2.0,88,0.00,,,0.00,LWC V2.10 B1702,2013-02-14 06:40:00,
2013-02-14 01:45:00,32.9,29.7,29.69,NNE,25,0.0,1.0,88,0.00,,,0.00,LWC V2.10 B1702,2013-02-14 06:45:00,
2013-02-14 01:50:00,32.9,30.0,29.70,North,355,0.0,0.0,89,0.00,,,0.00,LWC V2.10 B1702,2013-02-14 06:50:00,
2013-02-14 01:55:00,32.9,30.0,29.70,North,355,0.0,0.0,89,0.00,,,0.00,LWC V2.10 B1702,2013-02-14 06:55:00,
2013-02-14 02:00:00,32.8,29.9,29.70,North,355,0.0,0.0,89,0.00,,,0.00,LWC V2.10 B1702,2013-02-14 07:00:00,
2013-02-14 02:05:00,32.9,30.0,29.70,North,355,0.0,0.0,89,0.00,,,0.00,LWC V2.10 B1702,2013-02-14 07:05:00,
2013-02-14 02:10:00,32.9,30.3,29.70,North,355,0.0,0.0,90,0.00,,,0.00,LWC V2.10 B1702,2013-02-14 07:10:00,
2013-02-14 02:15:00,32.9,30.3,29.69,NNE,17,0.0,0.0,90,0.00,,,0.00,LWC V2.10 B1702,2013-02-14 07:15:00,
2013-02-14 02:20:00,33.0,30.4,29.69,NNE,13,0.0,0.0,90,0.00,,,0.00,LWC V2.10 B1702,2013-02-14 07:20:00,
2013-02-14 02:25:00,33.0,30.4,29.68,NNE,28,0.0,0.0,90,0.00,,,0.00,LWC V2.10 B1702,2013-02-14 07:25:00,
2013-02-14 02:30:00,33.0,30.4,29.68,NNE,28,0.0,0.0,90,0.00,,,0.00,LWC V2.10 B1702,2013-02-14 07:30:00,
2013-02-14 02:35:00,33.0,30.4,29.68,NNE,28,0.0,0.0,90,0.00,,,0.00,LWC V2.10 B1702,2013-02-14 07:35:00,
2013-02-14 02:40:00,32.9,30.3,29.67,NNE,27,0.0,0.0,90,0.00,,,0.00,LWC V2.10 B1702,2013-02-14 07:40:00,
2013-02-14 02:45:00,32.9,30.3,29.67,NNE,27,0.0,0.0,90,0.00,,,0.00,LWC V2.10 B1702,2013-02-14 07:45:00,
2013-02-14 02:50:00,32.8,30.2,29.67,NNE,27,0.0,0.0,90,0.00,,,0.00,LWC V2.10 B1702,2013-02-14 07:50:00,
2013-02-14 02:55:00,32.8,30.5,29.67,NNE,27,0.0,0.0,91,0.00,,,0.00,LWC V2.10 B1702,2013-02-14 07:55:00,
2013-02-14 03:00:00,32.8,30.5,29.68,NNE,27,0.0,0.0,91,0.00,,,0.00,LWC V2.10 B1702,2013-02-14 08:00:00,
2013-02-14 03:05:00,32.8,30.5,29.68,NNE,20,0.0,0.0,91,0.00,,,0.00,LWC V2.10 B1702,2013-02-14 08:05:00,
2013-02-14 03:10:00,32.8,30.5,29.68,NNE,20,0.0,0.0,91,0.00,,,0.00,LWC V2.10 B1702,2013-02-14 08:10:00,
2013-02-14 03:15:00,32.9,30.6,29.67,NNE,21,0.0,0.0,91,0.00,,,0.00,LWC V2.10 B1702,2013-02-14 08:15:00,
2013-02-14 03:20:00,33.0,30.7,29.67,NNE,21,0.0,0.0,91,0.00,,,0.00,LWC V2.10 B1702,2013-02-14 08:20:00,
2013-02-14 03:25:00,33.0,30.7,29.67,NNE,21,0.0,0.0,91,0.00,,,0.00,LWC V2.10 B1702,2013-02-14 08:25:00,
2013-02-14 03:30:00,33.2,31.1,29.67,NNE,21,0.0,0.0,92,0.00,,,0.00,LWC V2.10 B1702,2013-02-14 08:30:00,
2013-02-14 03:35:00,33.2,31.1,29.67,NNE,20,2.0,2.0,92,0.00,,,0.00,LWC V2.10 B1702,2013-02-14 08:35:00,
2013-02-14 03:40:00,33.3,31.2,29.67,NNE,20,0.0,1.0,92,0.00,,,0.00,LWC V2.10 B1702,2013-02-14 08:40:00,
2013-02-14 03:45:00,33.3,31.2,29.67,NNE,19,0.0,0.0,92,0.00,,,0.00,LWC V2.10 B1702,2013-02-14 08:45:00,
2013-02-14 03:50:00,33.3,31.2,29.67,NNE,19,0.0,0.0,92,0.00,,,0.00,LWC V2.10 B1702,2013-02-14 08:50:00,
2013-02-14 03:55:00,33.3,31.2,29.67,NNE,19,0.0,0.0,92,0.00,,,0.00,LWC V2.10 B1702,2013-02-14 08:55:00,
2013-02-14 04:00:00,33.2,31.1,29.67,NNE,18,0.0,2.0,92,0.00,,,0.00,LWC V2.10 B1702,2013-02-14 09:00:00,
2013-02-14 04:05:00,33.1,30.8,29.67,NNE,17,0.0,0.0,91,0.00,,,0.00,LWC V2.10 B1702,2013-02-14 09:05:00,
2013-02-14 04:10:00,33.0,30.7,29.67,NNE,17,0.0,0.0,91,0.00,,,0.00,LWC V2.10 B1702,2013-02-14 09:10:00,
2013-02-14 04:15:00,32.9,30.6,29.67,NNE,17,1.0,1.0,91,0.00,,,0.00,LWC V2.10 B1702,2013-02-14 09:15:00,
2013-02-14 04:20:00,32.9,30.6,29.68,NNE,17,0.0,1.0,91,0.00,,,0.00,LWC V2.10 B1702,2013-02-14 09:20:00,
2013-02-14 04:25:00,32.8,30.5,29.68,NNE,17,0.0,0.0,91,0.00,,,0.00,LWC V2.10 B1702,2013-02-14 09:25:00,
2013-02-14 04:30:00,32.8,30.5,29.68,NNE,17,0.0,0.0,91,0.00,,,0.00,LWC V2.10 B1702,2013-02-14 09:30:00,
2013-02-14 04:35:00,32.7,30.4,29.68,NNE,16,0.0,0.0,91,0.00,,,0.00,LWC V2.10 B1702,2013-02-14 09:35:00,
2013-02-14 04:40:00,32.7,30.4,29.69,NNE,16,0.0,0.0,91,0.00,,,0.00,LWC V2.10 B1702,2013-02-14 09:40:00,
2013-02-14 04:45:00,32.8,30.7,29.69,NW,323,0.0,0.0,92,0.00,,,0.00,LWC V2.10 B1702,2013-02-14 09:45:00,
2013-02-14 04:50:00,32.8,30.7,29.70,NNE,30,0.0,1.0,92,0.00,,,0.00,LWC V2.10 B1702,2013-02-14 09:50:00,
2013-02-14 04:55:00,32.8,30.7,29.70,NNE,26,0.0,1.0,92,0.00,,,0.00,LWC V2.10 B1702,2013-02-14 09:55:00,
2013-02-14 05:00:00,32.8,30.7,29.70,NNW,343,0.0,0.0,92,0.00,,,0.00,LWC V2.10 B1702,2013-02-14 10:00:00,
2013-02-14 05:05:00,32.9,30.8,29.70,ENE,63,0.0,3.0,92,0.00,,,0.00,LWC V2.10 B1702,2013-02-14 10:05:00,
2013-02-14 05:10:00,32.8,30.7,29.70,NE,38,0.0,0.0,92,0.00,,,0.00,LWC V2.10 B1702,2013-02-14 10:10:00,
2013-02-14 05:15:00,32.8,30.7,29.71,NE,38,0.0,2.0,92,0.00,,,0.00,LWC V2.10 B1702,2013-02-14 10:15:00,
2013-02-14 05:20:00,32.8,30.7,29.71,NE,38,0.0,0.0,92,0.00,,,0.00,LWC V2.10 B1702,2013-02-14 10:20:00,
2013-02-14 05:25:00,32.7,30.6,29.71,NE,38,0.0,0.0,92,0.00,,,0.00,LWC V2.10 B1702,2013-02-14 10:25:00,
2013-02-14 05:30:00,32.6,30.5,29.71,NE,38,0.0,0.0,92,0.00,,,0.00,LWC V2.10 B1702,2013-02-14 10:30:00,
2013-02-14 05:35:00,32.4,30.1,29.72,NE,38,0.0,0.0,91,0.00,,,0.00,LWC V2.10 B1702,2013-02-14 10:35:00,
2013-02-14 05:40:00,32.3,30.0,29.72,NE,38,0.0,0.0,91,0.00,,,0.00,LWC V2.10 B1702,2013-02-14 10:40:00,
2013-02-14 05:45:00,32.1,29.8,29.72,NE,38,0.0,0.0,91,0.00,,,0.00,LWC V2.10 B1702,2013-02-14 10:45:00,
2013-02-14 05:50:00,31.9,29.6,29.72,NE,38,0.0,0.0,91,0.00,,,0.00,LWC V2.10 B1702,2013-02-14 10:50:00,
2013-02-14 05:55:00,31.7,29.4,29.72,NNE,32,0.0,0.0,91,0.00,,,0.00,LWC V2.10 B1702,2013-02-14 10:55:00,
2013-02-14 06:00:00,31.6,29.3,29.72,NNE,32,0.0,0.0,91,0.00,,,0.00,LWC V2.10 B1702,2013-02-14 11:00:00,
2013-02-14 06:05:00,31.4,29.1,29.72,NNE,32,0.0,0.0,91,0.00,,,0.00,LWC V2.10 B1702,2013-02-14 11:05:00,
2013-02-14 06:10:00,31.3,29.0,29.72,NNE,32,0.0,0.0,91,0.00,,,0.00,LWC V2.10 B1702,2013-02-14 11:10:00,
2013-02-14 06:15:00,31.1,28.8,29.72,NNE,32,0.0,0.0,91,0.00,,,0.00,LWC V2.10 B1702,2013-02-14 11:15:00,
2013-02-14 06:20:00,30.8,28.5,29.73,NNE,32,0.0,0.0,91,0.00,,,0.00,LWC V2.10 B1702,2013-02-14 11:20:00,
2013-02-14 06:25:00,30.5,27.9,29.73,NNE,32,0.0,0.0,90,0.00,,,0.00,LWC V2.10 B1702,2013-02-14 11:25:00,
2013-02-14 06:30:00,30.3,28.0,29.73,NNE,32,0.0,0.0,91,0.00,,,0.00,LWC V2.10 B1702,2013-02-14 11:30:00,
2013-02-14 06:35:00,30.1,27.8,29.73,NNE,32,0.0,0.0,91,0.00,,,0.00,LWC V2.10 B1702,2013-02-14 11:35:00,
2013-02-14 06:40:00,30.0,27.7,29.73,NNE,32,0.0,0.0,91,0.00,,,0.00,LWC V2.10 B1702,2013-02-14 11:40:00,
2013-02-14 06:45:00,29.9,27.6,29.73,NNE,32,0.0,0.0,91,0.00,,,0.00,LWC V2.10 B1702,2013-02-14 11:45:00,
2013-02-14 06:50:00,29.7,27.4,29.74,NNE,32,0.0,0.0,91,0.00,,,0.00,LWC V2.10 B1702,2013-02-14 11:50:00,
2013-02-14 06:55:00,29.6,27.3,29.74,NNE,30,0.0,0.0,91,0.00,,,0.00,LWC V2.10 B1702,2013-02-14 11:55:00,
2013-02-14 07:00:00,29.4,27.1,29.74,NNE,30,0.0,0.0,91,0.00,,,0.00,LWC V2.10 B1702,2013-02-14 12:00:00,
2013-02-14 07:05:00,29.4,27.1,29.75,NNE,30,0.0,0.0,91,0.00,,,0.00,LWC V2.10 B1702,2013-02-14 12:05:00,
2013-02-14 07:10:00,29.5,27.2,29.75,NNE,30,0.0,0.0,91,0.00,,,0.00,LWC V2.10 B1702,2013-02-14 12:10:00,
2013-02-14 07:15:00,29.6,27.6,29.75,NNE,30,0.0,0.0,92,0.00,,,0.00,LWC V2.10 B1702,2013-02-14 12:15:00,
2013-02-14 07:18:00,29.8,27.8,29.75,NNE,30,0.0,0.0,92,0.00,,,0.00,LWC V2.10 B1702,2013-02-14 12:18:00,
2013-02-14 07:23:00,29.9,27.9,29.76,NNE,30,0.0,0.0,92,0.00,,,0.00,LWC V2.10 B1702,2013-02-14 12:23:00,
2013-02-14 07:28:00,30.2,28.2,29.76,NNE,30,0.0,0.0,92,0.00,,,0.00,LWC V2.10 B1702,2013-02-14 12:28:00,
2013-02-14 07:33:00,30.6,28.6,29.77,NNE,30,0.0,0.0,92,0.00,,,0.00,LWC V2.10 B1702,2013-02-14 12:33:00,
2013-02-14 07:38:00,31.0,29.0,29.77,NNE,30,0.0,0.0,92,0.00,,,0.00,LWC V2.10 B1702,2013-02-14 12:38:00,
2013-02-14 07:43:00,31.3,29.5,29.77,NNE,32,0.0,0.0,93,0.00,,,0.00,LWC V2.10 B1702,2013-02-14 12:43:00,
2013-02-14 07:48:00,31.5,29.7,29.77,NNE,32,0.0,0.0,93,0.00,,,0.00,LWC V2.10 B1702,2013-02-14 12:48:00,
2013-02-14 07:53:00,31.6,29.5,29.78,NNE,32,0.0,0.0,92,0.00,,,0.00,LWC V2.10 B1702,2013-02-14 12:53:00,
2013-02-14 07:58:00,31.7,29.6,29.78,NNE,32,0.0,2.0,92,0.00,,,0.00,LWC V2.10 B1702,2013-02-14 12:58:00,
2013-02-14 08:03:00,31.8,29.7,29.79,NE,36,0.0,2.0,92,0.00,,,0.00,LWC V2.10 B1702,2013-02-14 13:03:00,
2013-02-14 08:09:00,32.0,29.9,29.80,NW,311,1.0,1.0,92,0.00,,,0.00,LWC V2.10 B1702,2013-02-14 13:09:00,
2013-02-14 08:14:00,32.3,30.2,29.80,NNE,15,0.0,2.0,92,0.00,,,0.00,LWC V2.10 B1702,2013-02-14 13:14:00,
2013-02-14 08:19:00,32.5,30.4,29.80,NNE,26,0.0,3.0,92,0.00,,,0.00,LWC V2.10 B1702,2013-02-14 13:19:00,
2013-02-14 08:24:00,32.6,30.5,29.79,NNE,16,0.0,2.0,92,0.00,,,0.00,LWC V2.10 B1702,2013-02-14 13:24:00,
2013-02-14 08:29:00,32.8,30.5,29.79,NNW,339,1.0,4.0,91,0.00,,,0.00,LWC V2.10 B1702,2013-02-14 13:29:00,
2013-02-14 08:34:00,32.9,30.6,29.80,NNW,334,0.0,1.0,91,0.00,,,0.00,LWC V2.10 B1702,2013-02-14 13:34:00,
2013-02-14 08:39:00,33.2,30.9,29.80,NNE,31,0.0,4.0,91,0.00,,,0.00,LWC V2.10 B1702,2013-02-14 13:39:00,
2013-02-14 08:44:00,33.4,30.8,29.81,North,9,0.0,1.0,90,0.00,,,0.00,LWC V2.10 B1702,2013-02-14 13:44:00,
2013-02-14 08:49:00,33.8,31.2,29.81,North,5,1.0,4.0,90,0.00,,,0.00,LWC V2.10 B1702,2013-02-14 13:49:00,
2013-02-14 08:54:00,34.3,31.7,29.82,North,355,1.0,3.0,90,0.00,,,0.00,LWC V2.10 B1702,2013-02-14 13:54:00,
2013-02-14 08:59:00,34.7,31.8,29.82,NNW,345,3.0,3.0,89,0.00,,,0.00,LWC V2.10 B1702,2013-02-14 13:59:00,
2013-02-14 09:04:00,35.0,31.8,29.81,NE,53,2.0,7.0,88,0.00,,,0.00,LWC V2.10 B1702,2013-02-14 14:04:00,
2013-02-14 09:09:00,35.2,31.7,29.81,North,5,1.0,5.0,87,0.00,,,0.00,LWC V2.10 B1702,2013-02-14 14:09:00,
2013-02-14 09:14:00,35.5,32.0,29.82,NNW,338,2.0,6.0,87,0.00,,,0.00,LWC V2.10 B1702,2013-02-14 14:14:00,
2013-02-14 09:19:00,35.6,31.8,29.82,North,5,2.0,4.0,86,0.00,,,0.00,LWC V2.10 B1702,2013-02-14 14:19:00,
2013-02-14 09:24:00,35.7,31.9,29.83,NNE,15,0.0,3.0,86,0.00,,,0.00,LWC V2.10 B1702,2013-02-14 14:24:00,
2013-02-14 09:29:00,36.0,32.2,29.83,North,355,1.0,4.0,86,0.00,,,0.00,LWC V2.10 B1702,2013-02-14 14:29:00,
2013-02-14 09:34:00,36.4,32.3,29.83,NNE,13,0.0,2.0,85,0.00,,,0.00,LWC V2.10 B1702,2013-02-14 14:34:00,
2013-02-14 09:39:00,36.7,32.6,29.83,NW,325,2.0,3.0,85,0.16,,,0.02,LWC V2.10 B1702,2013-02-14 14:39:00,
2013-02-14 09:44:00,37.0,32.6,29.84,North,355,0.0,1.0,84,0.13,,,0.03,LWC V2.10 B1702,2013-02-14 14:44:00,
2013-02-14 09:49:00,37.4,33.0,29.84,North,350,3.0,5.0,84,0.11,,,0.04,LWC V2.10 B1702,2013-02-14 14:49:00,
2013-02-14 09:54:00,37.8,33.4,29.84,NW,305,0.0,4.0,84,0.13,,,0.05,LWC V2.10 B1702,2013-02-14 14:54:00,
2013-02-14 09:59:00,38.3,33.6,29.85,NNE,22,2.0,5.0,83,0.13,,,0.06,LWC V2.10 B1702,2013-02-14 14:59:00,
2013-02-14 10:04:00,38.7,33.7,29.85,NE,51,2.0,7.0,82,0.12,,,0.07,LWC V2.10 B1702,2013-02-14 15:04:00,
2013-02-14 10:09:00,38.8,33.5,29.86,NE,35,0.0,2.0,81,0.12,,,0.08,LWC V2.10 B1702,2013-02-14 15:09:00,
2013-02-14 10:14:00,38.7,33.4,29.86,NE,42,4.0,5.0,81,0.16,,,0.09,LWC V2.10 B1702,2013-02-14 15:14:00,
2013-02-14 10:19:00,38.6,33.3,29.86,NE,55,1.0,4.0,81,0.11,,,0.10,LWC V2.10 B1702,2013-02-14 15:19:00,
2013-02-14 10:24:00,38.7,33.4,29.87,NNW,333,1.0,4.0,81,0.10,,,0.11,LWC V2.10 B1702,2013-02-14 15:24:00,
2013-02-14 10:29:00,38.9,33.9,29.86,NNW,327,0.0,1.0,82,0.08,,,0.11,LWC V2.10 B1702,2013-02-14 15:29:00,
2013-02-14 10:34:00,39.2,33.9,29.87,NW,312,1.0,5.0,81,0.07,,,0.12,LWC V2.10 B1702,2013-02-14 15:34:00,
2013-02-14 10:39:00,39.5,33.8,29.87,NNW,340,0.0,4.0,80,0.07,,,0.12,LWC V2.10 B1702,2013-02-14 15:39:00,
2013-02-14 10:44:00,39.8,34.1,29.87,North,5,3.0,4.0,80,0.06,,,0.13,LWC V2.10 B1702,2013-02-14 15:44:00,
2013-02-14 10:49:00,40.2,34.2,29.87,NE,35,0.0,3.0,79,0.08,,,0.14,LWC V2.10 B1702,2013-02-14 15:49:00,
2013-02-14 10:54:00,40.2,34.2,29.87,North,350,3.0,3.0,79,0.13,,,0.15,LWC V2.10 B1702,2013-02-14 15:54:00,
2013-02-14 10:59:00,40.4,34.4,29.87,North,0,7.0,7.0,79,0.10,,,0.15,LWC V2.10 B1702,2013-02-14 15:59:00,
2013-02-14 11:04:00,40.9,34.6,29.87,NE,36,1.0,4.0,78,0.09,,,0.16,LWC V2.10 B1702,2013-02-14 16:04:00,
2013-02-14 11:09:00,40.9,34.3,29.87,NNE,20,1.0,4.0,77,0.10,,,0.17,LWC V2.10 B1702,2013-02-14 16:09:00,
2013-02-14 11:14:00,40.8,34.2,29.87,NNW,342,1.0,4.0,77,0.07,,,0.17,LWC V2.10 B1702,2013-02-14 16:14:00,
2013-02-14 11:19:00,41.4,34.4,29.87,North,355,4.0,7.0,76,0.07,,,0.18,LWC V2.10 B1702,2013-02-14 16:19:00,
2013-02-14 11:24:00,41.8,34.1,29.87,NW,326,2.0,4.0,74,0.09,,,0.19,LWC V2.10 B1702,2013-02-14 16:24:00,
2013-02-14 11:29:00,42.2,33.8,29.88,NNE,24,5.0,6.0,72,0.08,,,0.19,LWC V2.10 B1702,2013-02-14 16:29:00,
2013-02-14 11:34:00,42.9,33.8,29.88,East,81,2.0,3.0,70,0.05,,,0.20,LWC V2.10 B1702,2013-02-14 16:34:00,
2013-02-14 11:39:00,43.6,33.4,29.88,ENE,64,3.0,4.0,67,0.05,,,0.20,LWC V2.10 B1702,2013-02-14 16:39:00,
2013-02-14 11:44:00,44.3,33.3,29.88,NE,37,4.0,6.0,65,0.08,,,0.21,LWC V2.10 B1702,2013-02-14 16:44:00,
2013-02-14 11:49:00,44.0,32.6,29.88,ENE,75,2.0,6.0,64,0.07,,,0.21,LWC V2.10 B1702,2013-02-14 16:49:00,
2013-02-14 11:54:00,43.5,32.1,29.88,ENE,60,0.0,2.0,64,0.05,,,0.22,LWC V2.10 B1702,2013-02-14 16:54:00,
2013-02-14 11:59:00,43.1,31.8,29.89,ENE,74,0.0,3.0,64,0.05,,,0.22,LWC V2.10 B1702,2013-02-14 16:59:00,
2013-02-14 12:04:00,43.0,31.7,29.89,North,351,1.0,5.0,64,0.05,,,0.22,LWC V2.10 B1702,2013-02-14 17:04:00,
2013-02-14 12:09:00,43.1,31.0,29.89,NE,36,1.0,2.0,62,0.00,,,0.22,LWC V2.10 B1702,2013-02-14 17:09:00,
2013-02-14 12:14:00,43.9,33.3,29.89,North,355,2.0,2.0,66,0.00,,,0.23,LWC V2.10 B1702,2013-02-14 17:14:00,
2013-02-14 12:19:00,43.8,31.6,29.89,NNW,347,3.0,3.0,62,0.00,,,0.23,LWC V2.10 B1702,2013-02-14 17:19:00,
2013-02-14 12:24:00,43.3,31.6,29.89,NW,319,2.0,3.0,63,0.00,,,0.23,LWC V2.10 B1702,2013-02-14 17:24:00,
2013-02-14 12:29:00,43.7,31.1,29.89,NW,325,1.0,3.0,61,0.00,,,0.23,LWC V2.10 B1702,2013-02-14 17:29:00,
2013-02-14 12:34:00,43.5,30.5,29.89,NNW,336,1.0,3.0,60,0.00,,,0.23,LWC V2.10 B1702,2013-02-14 17:34:00,
2013-02-14 12:39:00,42.9,30.4,29.90,NW,326,0.0,2.0,61,0.00,,,0.23,LWC V2.10 B1702,2013-02-14 17:39:00,
2013-02-14 12:44:00,42.7,31.0,29.89,NNW,348,2.0,4.0,63,0.00,,,0.23,LWC V2.10 B1702,2013-02-14 17:44:00,
2013-02-14 12:49:00,42.6,30.5,29.89,North,5,0.0,0.0,62,0.00,,,0.23,LWC V2.10 B1702,2013-02-14 17:49:00,
2013-02-14 12:54:00,43.0,30.9,29.90,East,94,3.0,6.0,62,0.00,,,0.23,LWC V2.10 B1702,2013-02-14 17:54:00,
2013-02-14 12:59:00,43.6,30.2,29.89,North,351,1.0,1.0,59,0.00,,,0.23,LWC V2.10 B1702,2013-02-14 17:59:00,
2013-02-14 13:04:00,43.9,29.7,29.89,NNW,340,0.0,2.0,57,0.00,,,0.23,LWC V2.10 B1702,2013-02-14 18:04:00,
2013-02-14 13:09:00,44.2,29.9,29.89,North,355,0.0,1.0,57,0.00,,,0.23,LWC V2.10 B1702,2013-02-14 18:09:00,
2013-02-14 13:14:00,44.5,30.2,29.89,NE,41,1.0,2.0,57,0.00,,,0.23,LWC V2.10 B1702,2013-02-14 18:14:00,
2013-02-14 13:19:00,44.6,29.9,29.90,NNE,13,4.0,4.0,56,0.00,,,0.23,LWC V2.10 B1702,2013-02-14 18:19:00,
2013-02-14 13:24:00,44.4,29.3,29.90,West,281,0.0,1.0,55,0.00,,,0.23,LWC V2.10 B1702,2013-02-14 18:24:00,
2013-02-14 13:29:00,44.2,29.1,29.90,ENE,67,3.0,5.0,55,0.00,,,0.23,LWC V2.10 B1702,2013-02-14 18:29:00,
2013-02-14 13:34:00,44.3,29.2,29.90,NW,322,1.0,5.0,55,0.00,,,0.23,LWC V2.10 B1702,2013-02-14 18:34:00,
2013-02-14 13:39:00,44.4,28.4,29.89,North,350,1.0,4.0,53,0.00,,,0.23,LWC V2.10 B1702,2013-02-14 18:39:00,
2013-02-14 13:44:00,44.6,28.1,29.90,SSW,212,0.0,2.0,52,0.00,,,0.23,LWC V2.10 B1702,2013-02-14 18:44:00,
2013-02-14 13:49:00,44.9,27.4,29.90,NNW,332,0.0,2.0,50,0.00,,,0.23,LWC V2.10 B1702,2013-02-14 18:49:00,
2013-02-14 13:54:00,44.7,28.2,29.90,NW,320,1.0,2.0,52,0.00,,,0.23,LWC V2.10 B1702,2013-02-14 18:54:00,
2013-02-14 13:59:00,44.7,27.7,29.90,WSW,257,2.0,3.0,51,0.00,,,0.23,LWC V2.10 B1702,2013-02-14 18:59:00,
2013-02-14 14:04:00,44.9,28.4,29.90,NE,47,4.0,5.0,52,0.00,,,0.23,LWC V2.10 B1702,2013-02-14 19:04:00,
2013-02-14 14:09:00,44.9,27.9,29.90,East,95,0.0,3.0,51,0.00,,,0.23,LWC V2.10 B1702,2013-02-14 19:09:00,
2013-02-14 14:14:00,44.9,26.9,29.90,West,273,1.0,3.0,49,0.00,,,0.23,LWC V2.10 B1702,2013-02-14 19:14:00,
2013-02-14 14:19:00,44.6,26.6,29.90,SSE,167,0.0,0.0,49,0.00,,,0.23,LWC V2.10 B1702,2013-02-14 19:19:00,
2013-02-14 14:24:00,44.8,28.7,29.90,SSE,167,0.0,0.0,53,0.00,,,0.23,LWC V2.10 B1702,2013-02-14 19:24:00,
2013-02-14 14:29:00,44.9,26.9,29.90,NW,321,0.0,0.0,49,0.00,,,0.23,LWC V2.10 B1702,2013-02-14 19:29:00,
2013-02-14 14:34:00,45.1,28.1,29.90,SE,135,1.0,3.0,51,0.00,,,0.23,LWC V2.10 B1702,2013-02-14 19:34:00,
2013-02-14 14:39:00,45.6,29.0,29.90,SSW,195,0.0,0.0,52,0.00,,,0.23,LWC V2.10 B1702,2013-02-14 19:39:00,
2013-02-14 14:44:00,45.9,26.3,29.91,SSW,205,0.0,0.0,46,0.00,,,0.23,LWC V2.10 B1702,2013-02-14 19:44:00,
2013-02-14 14:49:00,45.6,27.6,29.91,WSW,248,0.0,5.0,49,0.00,,,0.23,LWC V2.10 B1702,2013-02-14 19:49:00,
2013-02-14 14:54:00,45.1,27.6,29.91,NW,317,2.0,2.0,50,0.00,,,0.23,LWC V2.10 B1702,2013-02-14 19:54:00,
2013-02-14 14:59:00,44.4,26.5,29.91,West,281,2.0,4.0,49,0.00,,,0.23,LWC V2.10 B1702,2013-02-14 19:59:00,
2013-02-14 15:04:00,44.1,27.1,29.91,SW,218,1.0,2.0,51,0.00,,,0.23,LWC V2.10 B1702,2013-02-14 20:04:00,
2013-02-14 15:09:00,44.2,27.2,29.91,West,261,0.0,0.0,51,0.00,,,0.23,LWC V2.10 B1702,2013-02-14 20:09:00,
2013-02-14 15:14:00,44.3,27.3,29.92,SSW,198,2.0,4.0,51,0.00,,,0.23,LWC V2.10 B1702,2013-02-14 20:14:00,
2013-02-14 15:19:00,44.2,27.2,29.92,West,276,2.0,6.0,51,0.00,,,0.23,LWC V2.10 B1702,2013-02-14 20:19:00,
2013-02-14 15:24:00,44.1,25.7,29.92,SW,230,4.0,5.0,48,0.00,,,0.23,LWC V2.10 B1702,2013-02-14 20:24:00,
2013-02-14 15:29:00,43.9,26.0,29.92,WSW,238,5.0,6.0,49,0.00,,,0.23,LWC V2.10 B1702,2013-02-14 20:29:00,
2013-02-14 15:34:00,43.8,27.3,29.92,West,260,4.0,4.0,52,0.00,,,0.23,LWC V2.10 B1702,2013-02-14 20:34:00,
2013-02-14 15:39:00,43.3,27.3,29.93,WSW,245,1.0,3.0,53,0.00,,,0.23,LWC V2.10 B1702,2013-02-14 20:39:00,
2013-02-14 15:44:00,43.0,26.1,29.93,West,270,3.0,6.0,51,0.00,,,0.23,LWC V2.10 B1702,2013-02-14 20:44:00,
2013-02-14 15:49:00,42.7,28.1,29.93,SW,225,4.0,5.0,56,0.00,,,0.23,LWC V2.10 B1702,2013-02-14 20:49:00,
2013-02-14 15:54:00,42.2,28.9,29.93,WSW,249,4.0,7.0,59,0.00,,,0.23,LWC V2.10 B1702,2013-02-14 20:54:00,
2013-02-14 15:59:00,41.9,28.6,29.93,WSW,248,4.0,5.0,59,0.00,,,0.23,LWC V2.10 B1702,2013-02-14 20:59:00,
2013-02-14 16:04:00,41.9,29.4,29.94,West,275,1.0,4.0,61,0.00,,,0.23,LWC V2.10 B1702,2013-02-14 21:04:00,
2013-02-14 16:09:00,41.9,29.0,29.94,SW,231,1.0,4.0,60,0.00,,,0.23,LWC V2.10 B1702,2013-02-14 21:09:00,
2013-02-14 16:14:00,42.0,28.7,29.95,SSW,213,2.0,6.0,59,0.00,,,0.23,LWC V2.10 B1702,2013-02-14 21:14:00,
2013-02-14 16:19:00,41.9,28.2,29.95,WSW,244,3.0,4.0,58,0.00,,,0.23,LWC V2.10 B1702,2013-02-14 21:19:00,
2013-02-14 16:24:00,41.8,28.1,29.95,West,266,2.0,3.0,58,0.00,,,0.23,LWC V2.10 B1702,2013-02-14 21:24:00,
2013-02-14 16:29:00,41.5,27.4,29.94,SW,233,0.0,1.0,57,0.00,,,0.23,LWC V2.10 B1702,2013-02-14 21:29:00,
2013-02-14 16:34:00,41.3,27.7,29.94,SW,232,2.0,2.0,58,0.00,,,0.23,LWC V2.10 B1702,2013-02-14 21:34:00,
2013-02-14 16:39:00,40.9,27.7,29.94,WSW,239,0.0,4.0,59,0.00,,,0.23,LWC V2.10 B1702,2013-02-14 21:39:00,
2013-02-14 16:44:00,40.4,27.6,29.94,SW,217,1.0,2.0,60,0.00,,,0.23,LWC V2.10 B1702,2013-02-14 21:44:00,
2013-02-14 16:49:00,40.1,27.7,29.94,SW,232,0.0,1.0,61,0.00,,,0.23,LWC V2.10 B1702,2013-02-14 21:49:00,
2013-02-14 16:54:00,39.8,27.9,29.94,SW,232,0.0,0.0,62,0.00,,,0.23,LWC V2.10 B1702,2013-02-14 21:54:00,
2013-02-14 16:59:00,39.6,27.7,29.95,WSW,246,0.0,0.0,62,0.00,,,0.23,LWC V2.10 B1702,2013-02-14 21:59:00,
2013-02-14 17:04:00,39.3,27.8,29.96,WSW,245,0.0,3.0,63,0.00,,,0.23,LWC V2.10 B1702,2013-02-14 22:04:00,
2013-02-14 17:09:00,39.0,27.5,29.96,WSW,252,1.0,3.0,63,0.00,,,0.23,LWC V2.10 B1702,2013-02-14 22:09:00,
2013-02-14 17:14:00,38.7,28.0,29.96,WSW,240,0.0,1.0,65,0.00,,,0.23,LWC V2.10 B1702,2013-02-14 22:14:00,
2013-02-14 17:19:00,38.4,27.3,29.96,SW,227,1.0,3.0,64,0.00,,,0.23,LWC V2.10 B1702,2013-02-14 22:19:00,
2013-02-14 17:24:00,38.1,27.4,29.96,SW,227,0.0,0.0,65,0.00,,,0.23,LWC V2.10 B1702,2013-02-14 22:24:00,
2013-02-14 17:29:00,37.8,27.1,29.97,SW,227,0.0,0.0,65,0.00,,,0.23,LWC V2.10 B1702,2013-02-14 22:29:00,
2013-02-14 17:34:00,37.5,27.2,29.97,SW,215,0.0,1.0,66,0.00,,,0.23,LWC V2.10 B1702,2013-02-14 22:34:00,
2013-02-14 17:39:00,37.1,27.2,29.98,WSW,256,0.0,3.0,67,0.00,,,0.23,LWC V2.10 B1702,2013-02-14 22:39:00,
2013-02-14 17:44:00,36.8,26.9,29.98,SW,220,0.0,0.0,67,0.00,,,0.23,LWC V2.10 B1702,2013-02-14 22:44:00,
2013-02-14 17:49:00,36.5,27.0,29.98,SW,227,1.0,2.0,68,0.00,,,0.23,LWC V2.10 B1702,2013-02-14 22:49:00,
2013-02-14 17:54:00,36.4,27.2,29.99,SW,219,0.0,0.0,69,0.00,,,0.23,LWC V2.10 B1702,2013-02-14 22:54:00,
2013-02-14 17:59:00,36.2,27.4,29.98,SW,236,0.0,4.0,70,0.00,,,0.23,LWC V2.10 B1702,2013-02-14 22:59:00,
2013-02-14 18:04:00,36.0,27.5,29.98,SW,235,0.0,0.0,71,0.00,,,0.23,LWC V2.10 B1702,2013-02-14 23:04:00,
2013-02-14 18:09:00,35.9,27.8,29.98,SW,235,0.0,0.0,72,0.00,,,0.23,LWC V2.10 B1702,2013-02-14 23:09:00,
2013-02-14 18:14:00,35.8,27.7,29.99,SSW,213,0.0,1.0,72,0.00,,,0.23,LWC V2.10 B1702,2013-02-14 23:14:00,
2013-02-14 18:19:00,35.6,27.5,29.99,SW,229,0.0,1.0,72,0.00,,,0.23,LWC V2.10 B1702,2013-02-14 23:19:00,
2013-02-14 18:24:00,35.5,27.4,29.99,SW,218,1.0,1.0,72,0.00,,,0.23,LWC V2.10 B1702,2013-02-14 23:24:00,
2013-02-14 18:29:00,35.3,27.5,29.99,SW,218,0.0,1.0,73,0.00,,,0.23,LWC V2.10 B1702,2013-02-14 23:29:00,
2013-02-14 18:34:00,35.2,27.4,29.99,SW,231,0.0,0.0,73,0.00,,,0.23,LWC V2.10 B1702,2013-02-14 23:34:00,
2013-02-14 18:39:00,35.1,27.3,29.99,SW,231,1.0,1.0,73,0.00,,,0.23,LWC V2.10 B1702,2013-02-14 23:39:00,
2013-02-14 18:44:00,35.0,27.6,29.99,SSW,211,0.0,1.0,74,0.00,,,0.23,LWC V2.10 B1702,2013-02-14 23:44:00,
2013-02-14 18:49:00,34.8,27.7,29.99,SSW,211,0.0,0.0,75,0.00,,,0.23,LWC V2.10 B1702,2013-02-14 23:49:00,
2013-02-14 18:54:00,34.7,27.9,29.98,SSE,158,0.0,0.0,76,0.00,,,0.23,LWC V2.10 B1702,2013-02-14 23:54:00,
2013-02-14 18:59:00,34.6,27.8,29.98,SSE,158,0.0,0.0,76,0.00,,,0.23,LWC V2.10 B1702,2013-02-14 23:59:00,
2013-02-14 19:04:00,34.5,28.0,29.98,SSE,168,1.0,2.0,77,0.00,,,0.23,LWC V2.10 B1702,2013-02-15 00:04:00,
2013-02-14 19:09:00,34.4,28.0,29.98,SSW,213,0.0,1.0,77,0.00,,,0.23,LWC V2.10 B1702,2013-02-15 00:09:00,
2013-02-14 19:14:00,34.4,28.3,29.98,SSW,213,0.0,0.0,78,0.00,,,0.23,LWC V2.10 B1702,2013-02-15 00:14:00,
2013-02-14 19:19:00,34.3,28.2,29.98,SSW,213,0.0,0.0,78,0.00,,,0.23,LWC V2.10 B1702,2013-02-15 00:19:00,
2013-02-14 19:24:00,34.1,28.0,29.98,SSW,213,0.0,0.0,78,0.00,,,0.23,LWC V2.10 B1702,2013-02-15 00:24:00,
2013-02-14 19:29:00,34.0,27.9,29.98,SSW,213,0.0,0.0,78,0.00,,,0.23,LWC V2.10 B1702,2013-02-15 00:29:00,
2013-02-14 19:34:00,33.9,28.1,29.98,SSW,213,0.0,0.0,79,0.00,,,0.23,LWC V2.10 B1702,2013-02-15 00:34:00,
2013-02-14 19:39:00,33.7,27.9,29.99,SSW,213,0.0,0.0,79,0.00,,,0.23,LWC V2.10 B1702,2013-02-15 00:39:00,
2013-02-14 19:44:00,33.5,28.0,29.99,SSW,213,0.0,0.0,80,0.00,,,0.23,LWC V2.10 B1702,2013-02-15 00:44:00,
2013-02-14 19:49:00,33.3,27.8,29.99,SSW,213,0.0,0.0,80,0.00,,,0.23,LWC V2.10 B1702,2013-02-15 00:49:00,
2013-02-14 19:54:00,33.1,27.6,29.99,SSW,213,0.0,0.0,80,0.00,,,0.23,LWC V2.10 B1702,2013-02-15 00:54:00,
2013-02-14 19:59:00,32.9,27.7,29.99,SSW,213,0.0,0.0,81,0.00,,,0.23,LWC V2.10 B1702,2013-02-15 00:59:00,
2013-02-14 20:04:00,32.8,27.6,29.99,SSW,213,0.0,0.0,81,0.00,,,0.23,LWC V2.10 B1702,2013-02-15 01:04:00,
2013-02-14 20:09:00,32.6,27.7,29.99,SSW,213,0.0,0.0,82,0.00,,,0.23,LWC V2.10 B1702,2013-02-15 01:09:00,
2013-02-14 20:14:00,32.6,27.7,30.00,SW,217,0.0,0.0,82,0.00,,,0.23,LWC V2.10 B1702,2013-02-15 01:14:00,
2013-02-14 20:19:00,32.6,28.0,29.99,WSW,245,0.0,1.0,83,0.00,,,0.23,LWC V2.10 B1702,2013-02-15 01:19:00,
2013-02-14 20:24:00,32.6,28.0,30.00,SW,224,0.0,1.0,83,0.00,,,0.23,LWC V2.10 B1702,2013-02-15 01:24:00,
2013-02-14 20:29:00,32.7,28.1,30.00,SW,224,1.0,1.0,83,0.00,,,0.23,LWC V2.10 B1702,2013-02-15 01:29:00,
2013-02-14 20:34:00,32.7,28.1,30.00,SW,224,0.0,1.0,83,0.00,,,0.23,LWC V2.10 B1702,2013-02-15 01:34:00,
2013-02-14 20:39:00,32.8,28.2,30.00,SW,223,0.0,1.0,83,0.00,,,0.23,LWC V2.10 B1702,2013-02-15 01:39:00,
2013-02-14 20:44:00,32.8,28.2,30.00,SW,223,0.0,0.0,83,0.00,,,0.23,LWC V2.10 B1702,2013-02-15 01:44:00,
2013-02-14 20:49:00,32.8,28.2,30.00,SW,223,0.0,1.0,83,0.00,,,0.23,LWC V2.10 B1702,2013-02-15 01:49:00,
2013-02-14 20:54:00,32.8,28.2,30.00,SW,223,0.0,0.0,83,0.00,,,0.23,LWC V2.10 B1702,2013-02-15 01:54:00,
2013-02-14 20:59:00,32.8,28.2,30.00,SW,223,0.0,0.0,83,0.00,,,0.23,LWC V2.10 B1702,2013-02-15 01:59:00,
2013-02-14 21:04:00,32.7,28.1,30.00,SSW,207,0.0,2.0,83,0.00,,,0.23,LWC V2.10 B1702,2013-02-15 02:04:00,
2013-02-14 21:09:00,32.7,28.1,30.00,SSW,207,0.0,1.0,83,0.00,,,0.23,LWC V2.10 B1702,2013-02-15 02:09:00,
2013-02-14 21:14:00,32.8,28.2,30.01,SW,220,0.0,2.0,83,0.00,,,0.23,LWC V2.10 B1702,2013-02-15 02:14:00,
2013-02-14 21:19:00,32.8,28.2,30.01,SSW,207,0.0,0.0,83,0.00,,,0.23,LWC V2.10 B1702,2013-02-15 02:19:00,
2013-02-14 21:24:00,32.8,28.2,30.01,SSW,207,0.0,1.0,83,0.00,,,0.23,LWC V2.10 B1702,2013-02-15 02:24:00,
2013-02-14 21:29:00,32.8,28.2,30.01,SSW,207,0.0,1.0,83,0.00,,,0.23,LWC V2.10 B1702,2013-02-15 02:29:00,
2013-02-14 21:34:00,32.8,28.2,30.00,SSW,207,0.0,0.0,83,0.00,,,0.23,LWC V2.10 B1702,2013-02-15 02:34:00,
2013-02-14 21:39:00,32.8,28.2,30.00,SSW,207,0.0,0.0,83,0.00,,,0.23,LWC V2.10 B1702,2013-02-15 02:39:00,
2013-02-14 21:44:00,32.7,28.1,30.00,SSW,207,0.0,0.0,83,0.00,,,0.23,LWC V2.10 B1702,2013-02-15 02:44:00,
2013-02-14 21:49:00,32.6,28.0,30.00,SSW,207,0.0,0.0,83,0.00,,,0.23,LWC V2.10 B1702,2013-02-15 02:49:00,
2013-02-14 21:54:00,32.6,28.0,30.00,SSW,207,0.0,0.0,83,0.00,,,0.23,LWC V2.10 B1702,2013-02-15 02:54:00,
2013-02-14 21:59:00,32.5,27.9,30.00,SSW,207,0.0,0.0,83,0.00,,,0.23,LWC V2.10 B1702,2013-02-15 02:59:00,
2013-02-14 22:04:00,32.4,27.8,30.01,SSW,207,0.0,0.0,83,0.00,,,0.23,LWC V2.10 B1702,2013-02-15 03:04:00,
2013-02-14 22:09:00,32.3,28.0,30.01,SSW,207,0.0,0.0,84,0.00,,,0.23,LWC V2.10 B1702,2013-02-15 03:09:00,
2013-02-14 22:14:00,32.3,28.0,30.01,SSW,207,0.0,0.0,84,0.00,,,0.23,LWC V2.10 B1702,2013-02-15 03:14:00,
2013-02-14 22:19:00,32.2,27.9,30.01,SSW,207,0.0,1.0,84,0.00,,,0.23,LWC V2.10 B1702,2013-02-15 03:19:00,
2013-02-14 22:24:00,32.3,28.3,30.01,SW,236,0.0,0.0,85,0.00,,,0.23,LWC V2.10 B1702,2013-02-15 03:24:00,
2013-02-14 22:29:00,32.3,28.3,30.00,SW,236,0.0,0.0,85,0.00,,,0.23,LWC V2.10 B1702,2013-02-15 03:29:00,
2013-02-14 22:34:00,32.3,28.3,30.01,SW,236,0.0,0.0,85,0.00,,,0.23,LWC V2.10 B1702,2013-02-15 03:34:00,
2013-02-14 22:39:00,32.3,28.3,30.01,SW,236,0.0,0.0,85,0.00,,,0.23,LWC V2.10 B1702,2013-02-15 03:39:00,
2013-02-14 22:44:00,32.2,28.2,30.00,SW,220,0.0,0.0,85,0.00,,,0.23,LWC V2.10 B1702,2013-02-15 03:44:00,
2013-02-14 22:49:00,32.1,28.1,30.01,SW,220,0.0,1.0,85,0.00,,,0.23,LWC V2.10 B1702,2013-02-15 03:49:00,
2013-02-14 22:54:00,32.1,28.1,30.00,SW,220,0.0,0.0,85,0.00,,,0.23,LWC V2.10 B1702,2013-02-15 03:54:00,
2013-02-14 22:59:00,32.1,28.4,30.01,SW,220,0.0,0.0,86,0.00,,,0.23,LWC V2.10 B1702,2013-02-15 03:59:00,
2013-02-14 23:04:00,32.1,28.4,30.01,SW,220,0.0,1.0,86,0.00,,,0.23,LWC V2.10 B1702,2013-02-15 04:04:00,
2013-02-14 23:09:00,32.2,28.5,30.01,SW,220,0.0,0.0,86,0.00,,,0.23,LWC V2.10 B1702,2013-02-15 04:09:00,
2013-02-14 23:14:00,32.2,28.5,30.01,SW,220,0.0,0.0,86,0.00,,,0.23,LWC V2.10 B1702,2013-02-15 04:14:00,
2013-02-14 23:19:00,32.1,28.4,30.01,SW,220,0.0,0.0,86,0.00,,,0.23,LWC V2.10 B1702,2013-02-15 04:19:00,
2013-02-14 23:24:00,32.1,28.1,30.01,SW,220,0.0,0.0,85,0.00,,,0.23,LWC V2.10 B1702,2013-02-15 04:24:00,
2013-02-14 23:29:00,31.9,28.2,30.01,SW,220,0.0,0.0,86,0.00,,,0.23,LWC V2.10 B1702,2013-02-15 04:29:00,
2013-02-14 23:34:00,31.8,27.8,30.02,SW,220,0.0,0.0,85,0.00,,,0.23,LWC V2.10 B1702,2013-02-15 04:34:00,
2013-02-14 23:39:00,31.6,27.9,30.02,SW,220,0.0,0.0,86,0.00,,,0.23,LWC V2.10 B1702,2013-02-15 04:39:00,
2013-02-14 23:44:00,31.5,27.8,30.01,SW,220,0.0,0.0,86,0.00,,,0.23,LWC V2.10 B1702,2013-02-15 04:44:00,
2013-02-14 23:49:00,31.3,27.6,30.01,SW,220,0.0,0.0,86,0.00,,,0.23,LWC V2.10 B1702,2013-02-15 04:49:00,
2013-02-14 23:54:00,31.3,27.9,30.01,SW,220,0.0,0.0,87,0.00,,,0.23,LWC V2.10 B1702,2013-02-15 04:54:00,
2013-02-14 23:59:00,31.5,28.1,30.01,SW,220,0.0,0.0,87,0.00,,,0.23,LWC V2.10 B1702,2013-02-15 04:59:00,